Avoca, PA

7:13 AM EST on February 21, 2018 (GMT -0500)
Wilkes-Barre-Scranton International

Weather History for KAVP - September, 2012

Change the Weather History Date:

Sunday, September 2, 2012

  Actual Average Record
Temperature  
Mean Temperature 72 °F 67 °F  
Max Temperature 83 °F 77 °F 99 °F (1953)
Min Temperature 60 °F 57 °F 43 °F (2001)
Degree Days  
Heating Degree Days 0 2  
Month to date heating degree days 0 3  
Since 1 July heating degree days 2 29  
Cooling Degree Days 7 3  
Month to date cooling degree days 19 7  
Year to date cooling degree days 810 531  
Growing Degree Days 21 (Base 50)    
Moisture  
Dew Point 60 °F    
Average Humidity 68    
Maximum Humidity 84    
Minimum Humidity 51    
Precipitation  
Precipitation 0.00 in 0.12 in 1.32 in (1990)
Month to date precipitation 0.00 0.24  
Year to date precipitation 22.17 25.27  
Sea Level Pressure  
Sea Level Pressure 30.05 in    
Wind  
Wind Speed 3 mph (West)    
Max Wind Speed 12 mph    
Max Gust Speed 14 mph    
Visibility 10 miles    
Events      
T = Trace of Precipitation, MM = Missing Value Source: NWS Daily Summary

Daily Weather History Graph

Daily Weather History Graph

Search for Another Location

Airport or City:

Trip Planner

Search our weather history database for the weather conditions in past years. The results will help you decide how hot, cold, wet, or windy it might be!

Date:

Astronomy

Sep. 02, 2012 Rise Set
Actual Time 6:30 AM EDT 7:33 PM EDT
Civil Twilight 6:02 AM EDT 8:01 PM EDT
Nautical Twilight 5:28 AM EDT 8:35 PM EDT
Astronomical Twilight 4:53 AM EDT 9:10 PM EDT
Moon 8:17 PM EDT (9/2) 8:39 AM EDT (9/2)
Length of Visible Light 13h 59m
Length of Day
13h 02m
Waning Gibbous, 95% of the Moon is Illuminated
Sep 2
Waning Gibbous
Sep 8
Last Quarter
Sep 15
New
Sep 22
First Quarter
Sep 29
Full

Hourly Weather History & Observations

Time (EDT) Temp. Heat Index Dew Point Humidity Pressure Visibility Wind Dir Wind Speed Gust Speed Precip Events Conditions
12:54 AM 64.9 °F - 53.1 °F 65% 30.05 in 10.0 mi East 4.6 mph - N/A   Clear
1:54 AM 64.0 °F - 53.1 °F 67% 30.06 in 10.0 mi Variable 3.5 mph - N/A   Clear
2:54 AM 63.0 °F - 53.1 °F 70% 30.06 in 10.0 mi East 5.8 mph - N/A   Clear
3:54 AM 61.0 °F - 53.1 °F 75% 30.06 in 10.0 mi Calm Calm - N/A   Clear
4:54 AM 61.0 °F - 53.1 °F 75% 30.06 in 10.0 mi East 3.5 mph - N/A   Mostly Cloudy
5:54 AM 61.0 °F - 54.0 °F 78% 30.06 in 10.0 mi NE 4.6 mph - N/A   Mostly Cloudy
6:54 AM 61.0 °F - 54.0 °F 78% 30.06 in 10.0 mi East 3.5 mph - N/A   Partly Cloudy
7:54 AM 63.0 °F - 55.0 °F 75% 30.08 in 10.0 mi Calm Calm - N/A   Mostly Cloudy
8:22 AM 64.4 °F - 55.4 °F 73% 30.10 in 10.0 mi Calm Calm - N/A   Mostly Cloudy
8:54 AM 66.0 °F - 57.0 °F 73% 30.08 in 10.0 mi Calm Calm - N/A   Overcast
9:54 AM 69.1 °F - 57.9 °F 68% 30.09 in 10.0 mi North 3.5 mph - N/A   Overcast
10:01 AM 69.8 °F - 57.2 °F 64% 30.10 in 10.0 mi Calm Calm - N/A   Overcast
10:54 AM 72.0 °F - 60.1 °F 66% 30.08 in 10.0 mi WNW 4.6 mph - N/A   Overcast
11:54 AM 75.9 °F - 62.1 °F 62% 30.06 in 10.0 mi Calm Calm - N/A   Overcast
12:54 PM 79.0 °F - 63.0 °F 58% 30.05 in 10.0 mi NNW 3.5 mph - N/A   Overcast
1:54 PM 82.0 °F 83.1 °F 63.0 °F 52% 30.04 in 10.0 mi Variable 3.5 mph - N/A   Scattered Clouds
2:54 PM 80.1 °F 81.5 °F 63.0 °F 56% 30.03 in 10.0 mi South 3.5 mph - N/A   Mostly Cloudy
3:54 PM 81.0 °F 82.2 °F 63.0 °F 54% 30.00 in 10.0 mi SW 6.9 mph - N/A   Mostly Cloudy
4:54 PM 81.0 °F 82.5 °F 64.0 °F 56% 30.00 in 9.0 mi WSW 9.2 mph - N/A   Scattered Clouds
5:54 PM 79.0 °F - 64.9 °F 62% 30.01 in 9.0 mi Variable 4.6 mph - N/A   Mostly Cloudy
6:54 PM 77.0 °F - 64.9 °F 66% 30.02 in 9.0 mi SW 5.8 mph - N/A   Partly Cloudy
7:54 PM 73.9 °F - 64.9 °F 73% 30.04 in 10.0 mi SW 3.5 mph - N/A   Mostly Cloudy
8:54 PM 73.0 °F - 64.0 °F 73% 30.05 in 10.0 mi Calm Calm - N/A   Mostly Cloudy
9:54 PM 71.1 °F - 64.9 °F 81% 30.06 in 8.0 mi Calm Calm - N/A   Overcast
10:54 PM 70.0 °F - 64.9 °F 84% 30.07 in 8.0 mi Calm Calm - N/A   Overcast
11:54 PM 70.0 °F - 64.0 °F 81% 30.06 in 9.0 mi Variable 4.6 mph - N/A   Overcast